Regional Weather Roundup
Issued by NWS Charleston, SC

Current Version | Previous Version | Graphics & Text | Print | Product List | Glossary On
Versions: 1 2 3 4 5 6 7 8 9 10 11 12 13 14 15 16 17 18 19 20 21 22 23 24 25 26 27 28 29 30 31 32 33 34 35 36 37 38 39 40 41 42 43 44 45 46 47 48 49 50
000
ASUS42 KCHS 170112
RWRCHS

REGIONAL WEATHER ROUNDUP
NATIONAL WEATHER SERVICE CHARLESTON SC
900 PM EDT WED AUG 16 2017

NOTE: "FAIR" INDICATES FEW OR NO CLOUDS BELOW 12,000 FEET WITH NO
SIGNIFICANT WEATHER AND/OR OBSTRUCTIONS TO VISIBILITY.

NOT ALL STATIONS ARE QUALITY CONTROLLED. USE DATA WITH CAUTION...
ESPECIALLY DEWPOINT OBSERVATIONS.

SCZ027-030-031-034>040-042>050-170200-
...SOUTHEAST SOUTH CAROLINA...

CITY           SKY/WX    TMP DP  RH WIND       PRES   REMARKS
N CHARLESTON   CLOUDY    84  77  79 S7        30.01R HX  94
WATERFRONT PRK   N/A    N/A N/A N/A VRB2      29.85R
JOHNS ISLAND   FAIR      86  81  84 SW6       30.01R HX 102
PINOPOLIS        N/A     84  79  84 VRB3      29.93R HX  96
MONCKS CORNER  FAIR      81  79  94 CALM      30.00R
SUMMERVILLE    FAIR      84  79  84 S3        30.01R HX  96
BEAUFORT MCAS  MOCLDY    86  81  85 S5        30.01R HX 102
BEAUFORT ARPT  FAIR      86  79  79 S5        30.01R HX  99
HILTON HEAD IS PTCLDY    86  81  84 S7        30.02R HX 102
WALTERBORO     CLEAR     82  75  78 S5        30.01R
ALLENDALE      NOT AVBL

...SOUTHERN MIDLANDS AND PEE DEE...

CITY           SKY/WX    TMP DP  RH WIND       PRES   REMARKS
GEORGETOWN     FAIR      81  81 100 S5        30.00F HX  91
KINGSTREE      FAIR      79  77  94 E3        29.99S
ORANGEBURG     CLEAR     84  76  76 CALM      29.99R HX  93
BARNWELL       FAIR      88  77  70 CALM      30.00R HX 100
AIKEN          FAIR      82  73  74 SW3       30.05R
MANNING        FAIR      81  81 100 SE12      29.99R HX  91
COLUMBIA       PTCLDY    88  74  63 CALM      29.98R HX  96
SUMTER         CLEAR     83  73  70 CALM      29.97R
FLORENCE       CLEAR     78  75  90 SE3       30.00S
MYRTLE BEACH   MOCLDY    79  77  94 SW5       30.01S
N MYRTLE BEACH CLOUDY    79  77  94 NE6       30.01R

$$

GAZ063-065-086>088-099>101-113>116-118-119-134>141-150-170200-
...SOUTHEAST GEORGIA...

CITY           SKY/WX    TMP DP  RH WIND       PRES   REMARKS
SAVANNAH ARPT  MOCLDY    88  78  72 SE6       30.01R HX 101
HUNTER AAF     RAIN      87  79  76 S6        29.99R HX 101
FORT STEWART   CLEAR     86  76  73 CALM      29.99R HX  96
STATESBORO     CLEAR     84  76  75 CALM      30.01S HX  93
SYLVANIA       CLEAR     82  82  97 CALM      30.02R HX  96
CLAXTON        FAIR      83  79  88 CALM      30.02R HX  95

...CSRA...CENTRAL AND FAR SOUTHEAST GEORGIA...

CITY           SKY/WX    TMP DP  RH WIND       PRES   REMARKS
THOMSON        CLEAR     82  78  88 CALM      30.07R HX  90
AUGUSTA-BUSH   CLEAR     83  79  88 CALM      29.99R HX  94
AUGUSTA-DANIEL CLEAR     90  71  53 CALM      30.01R HX  96
SWAINSBORO     FAIR      82  75  78 CALM      30.03S
VIDALIA        CLOUDY    82  75  78 CALM      30.03S
EASTMAN        FAIR      83  71  65 CALM      30.05S
HAZLEHURST     FAIR      85  67  54 CALM      30.02R
ALMA           CLEAR     82  76  81 CALM      30.02R
WAYCROSS       CLEAR     85  73  67 CALM      30.02S HX  91
JESUP          FAIR      84  75  74 CALM      30.02R HX  92
BAXLEY         FAIR      82  79  89 CALM      30.02R HX  93
BRUNSWICK      CLEAR     86  77  74 S9        30.03R HX  97
SAINT SIMONS   CLEAR     86  80  82 S10G20    30.02S HX 101

$$

SCZ027-028-034-036>038-045-046-048>050-GAZ119-141-170200-
...LAKE AND SUPPLEMENTAL COASTAL OBSERVATIONS...

STATION/POSITION TIME  TEMP    WIND        PRES    WAVE   SWELL
                       AIR SEA DIR/SP/G            HT/PER HT/PER/DIR
                 (UTC) (F)     (DEG/KT/KT) (MB)    (FT/S) (FT/S/D)
WINYAH BAY       2345   85     200/  4     1015.0
LAKE MURRAY      0020   89      CALM  /  1 1013.9
ACE BASIN NERRS  2345   85        CALM     1015.0
FORT PULASKI     0042   86 86  200/  3/  5 1016.6R
SAPELO ISLAND    0000   88     190/  4     1016.0

$$

ANZ835-935-AMZ111-154-330-350-352-354-370-450-454-472-170200-
...C-MAN AND BUOY OBSERVATIONS...

STATION/POSITION TIME  TEMP    WIND        PRES    WAVE   SWELL
                       AIR SEA DIR/SP/G            HT/PER HT/PER/DIR
                 (UTC) (F)     (DEG/KT/KT) (MB)    (FT/S) (FT/S/D)
BUOY 41004       0050   84 84  220/ 10/ 12 1015.8R   2/ 5   2/210/ 5
BUOY 41008       0050   86 85  170/ 12/ 14 1016.3R   1/ 9   2/ 90/ 9
FOLLY BEACH CMAN 0100   86      CALM  /  1 1017.1R
CAPERS NEARSHORE 0008   81 85  320/ 14/ 19 1015.8R
FRIPP NEARSHORE  0008   86     210/ 12/ 16 1015.4R


STATION/POSITION TIME  TEMP    WIND        PRES    WAVE   SWELL
                       AIR SEA DIR/SP/G            HT/PER HT/PER/DIR
                 (UTC) (F)     (DEG/KT/KT) (MB)    (FT/S) (FT/S/D)
5E ST. MARYS GA  0030      85                N/A     2/ 3
FRYING PAN BUOY  0050   84 83  210/  4/  4 1015.8R   2/ 5   2/210/ 5
BUOY 41025       0050   80 83   40/ 10/ 12 1015.6R   2/ 7   2/120/ 7
CAPE LOOKOUT NC  0000   81      80/  6/  6 1015.3R
BUOY 41002       0050   84 84  240/ 10/ 12 1016.5R   4/ 5   3/240/ 5
BUOY 41010       0050   86 87  220/  4/  6 1017.6R   2/ 8   2/ 60/ 8
ST AUGUSTINE FL  0100   82 84  200/  7/  8 1017.6R


$$




USA.gov is the U.S. government's official web portal to all federal, state and local government web resources and services.